Flag for U.S.A. Weather past 2 weeks in St. Augustine, Florida, U.S.A.

Now
88 °F

Partly sunny.


Feels Like: 93 °F
Forecast: 73 / 87 °F
Wind: 10 mph from West

Location: St. Augustine Airport

Current Time: Apr 26, 2015 at 3:56:37 PM

Latest Report: Apr 26, 2015 at 2:58 PM


Visibility: 10 mi

Pressure: 29.69 "Hg

Humidity: 55%

Dew point: 70 °F

Location of St. AugustineLocation

Historic Weather in St. Augustine — Graph

°F

St. Augustine temperature yesterday

Maximum temperature yesterday: 83 °F (at 12:58 PM)
Minimum temperature yesterday: 68 °F (at 1:58 AM)
Average temperature yesterday: 75 °F

Past Weeks' High & Low Weather Summary

 TemperatureHumidityPressure
High87 °F (Apr 26, 1:58 PM)100% (Apr 13, 1:02 AM)30.20 "Hg (Apr 13, 1:02 AM)
Low62 °F (Apr 22, 5:58 AM)53% (Apr 26, 1:58 PM)29.72 "Hg (Apr 26, 3:58 AM)
Average72 °F85%30.01 "Hg
* Reported Apr 11 1:58 PM — Apr 26 1:58 PM, St. Augustine, Weather by CustomWeather, © 2015

Note: Actual official high and low records may vary slightly from our data, if they occured in-between our weather recording intervals... More about our weather records

Advertising

St. Augustine weather history for previous 24 hours

 ConditionsComfort  
Time TempWeatherWind HumidityBarometerVisibility
1:58 PM
Sun, Apr 26
87 °FSunny.16 mph53%29.72 "Hg10 mi
12:58 PM85 °FPassing clouds.13 mph59%29.74 "Hg10 mi
11:58 AM86 °FSunny.12 mph55%29.76 "Hg10 mi
10:58 AM84 °FScattered clouds.13 mph57%29.76 "Hg10 mi
10:02 AM82 °FPassing clouds.14 mph66%29.76 "Hg10 mi
9:02 AM79 °FMostly cloudy.14 mph84%29.76 "Hg10 mi
8:02 AM77 °FOvercast.7 mph89%29.76 "Hg10 mi
7:58 AM77 °FFog.7 mph90%29.76 "Hg3 mi
6:58 AM76 °FFog.6 mph91%29.74 "Hg3 mi
5:58 AM75 °FLow clouds.9 mph94%29.73 "Hg10 mi
4:58 AM74 °FLow clouds.12 mph94%29.72 "Hg10 mi
3:58 AM73 °FPassing clouds.8 mph94%29.72 "Hg10 mi
2:58 AM74 °FPassing clouds.12 mph91%29.72 "Hg10 mi
1:58 AM75 °FClear.9 mph88%29.74 "Hg10 mi
12:58 AM76 °FClear.7 mph88%29.74 "Hg10 mi
11:58 PM
Sat, Apr 25
77 °FClear.9 mph88%29.74 "Hg10 mi
10:58 PM78 °FPassing clouds.12 mph82%29.81 "Hg10 mi
9:58 PM79 °FClear.8 mph77%29.79 "Hg10 mi
8:58 PM78 °FClear.9 mph76%29.77 "Hg10 mi
7:58 PM72 °FSunny.5 mph87%29.75 "Hg10 mi
6:58 PM75 °FMostly cloudy.8 mph76%29.79 "Hg10 mi
5:58 PM80 °FSunny.5 mph74%29.78 "Hg10 mi
4:58 PM75 °FPartly sunny.7 mph82%29.78 "Hg7 mi
3:58 PM73 °FLight rain. Fog.No wind90%29.82 "Hg5 mi
Weather by CustomWeather, © 2015

See weather overviewHow to use our weather pages